Location: Juniper Campground
(35.7953°N, 106.2814°W)
Time: 04:43:20
(UTC-06:00)

OTV 5 (USA 277) - Visible Passes

Search period start: 19 June 2018 00:00
Search period end: 29 June 2018 00:00
Orbit: 313 x 320 km, 54.5° (Epoch: 18 June)

Date Brightness Start Highest point End Pass type
(mag) Time Alt. Az. Time Alt. Az. Time Alt. Az.
19 Jun ? 03:16:31 10° N 03:18:04 14° NE 03:19:37 10° ENE visible
19 Jun ? 04:50:01 10° WNW 04:52:27 30° SW 04:54:51 10° SSE visible
19 Jun ? 21:08:32 10° W 21:10:19 16° NW 21:12:08 10° N visible
20 Jun ? 03:30:10 10° NNW 03:31:48 27° N 03:31:48 27° N visible
28 Jun ? 23:24:02 10° N 23:24:09 10° N 23:24:09 10° N visible
